Tracking 25620 objects as of 18-May-2022
HD Live streaming from Space Station
objects crossing your sky now

COSMOS 2251 DEB

Track COSMOS 2251 DEB now!
10-day predictions


NORAD ID: 40238
Int'l Code: 1993-036BVT
Perigee: 759.7 km
Apogee: 1,632.9 km
Inclination: 74.0 °
Period: 109.2 minutes
Semi major axis: 7567 km
RCS: Unknown
Launch date: June 16, 1993
Source: Commonwealth of Independent States (former USSR) (CIS)
Launch site: PLESETSK MISSILE AND SPACE COMPLEX (PKMTR)

Note: This is SATELLITE DEBRIS
aabbcc
Your satellite tracking list
Your tracking list is empty




NASA's NSSDC Master Catalog

Two Line Element Set (TLE):
1 40238U 93036BVT 22136.03797341  .00001697  00000-0  18187-2 0  9996
2 40238  73.9925 258.4069 0576945 120.3917 245.5503 13.18837968367731
Source of the keplerian elements: AFSPC